Zurück zum Katalog

LEMUR-2-ELEONORE

AktivWissenschaftSSO
NORAD 69940·PAYLOAD·🇺🇸 United States

Gestartet Jul 7, 2026 von Vandenberg Space Force Base

Loading…

Nächste Überflüge (nächste 24 Stunden)

TLE

AktuellSource: Space-Track

Epoche: Sep 14, 2026, 15:47 UTC

1 69940U 26156BZ  26257.65777260  .00001142  00000-0  11607-3 0  9996
2 69940  97.7478 157.0627 0008920 290.1742  69.8517 14.92712606 10346

Verfolge LEMUR-2-ELEONORE in Echtzeit mit AllMySat

Download on the App Store